| time (UTC) | temp F | wind direction | speed MPH | gust MPH | rain 1hr in | rain 24hr in | rain mn in | humidity % | barometer mb |
| 20260507021016 | 64 | 311 | 0.0 | 2.0 | 0.00 | 0.18 | 0.18 | 91 | 1009.8 |
| 20260507020017 | 64 | 273 | 1.0 | 3.0 | 0.00 | 0.18 | 0.18 | 90 | 1009.9 |
| 20260507015017 | 64 | 285 | 1.0 | 5.0 | 0.00 | 0.18 | 0.18 | 91 | 1009.9 |
| 20260507014017 | 64 | 281 | 1.0 | 8.0 | 0.00 | 0.18 | 0.18 | 92 | 1010.0 |
| 20260507013017 | 64 | 252 | 0.0 | 2.0 | 0.00 | 0.18 | 0.18 | 92 | 1009.8 |
| 20260507012018 | 65 | 269 | 1.0 | 3.0 | 0.00 | 0.18 | 0.18 | 91 | 1010.0 |
| 20260507011017 | 65 | 311 | 0.0 | 2.0 | 0.00 | 0.18 | 0.18 | 89 | 1009.8 |
| 20260507010017 | 65 | 308 | 0.0 | 2.0 | 0.00 | 0.18 | 0.18 | 87 | 1009.6 |
| 20260507005019 | 66 | 304 | 0.0 | 2.0 | 0.00 | 0.18 | 0.18 | 87 | 1009.7 |
| 20260507004017 | 66 | 306 | 0.0 | 1.0 | 0.00 | 0.17 | 0.17 | 87 | 1009.3 |
| 20260507003018 | 66 | 299 | 0.0 | 1.0 | 0.00 | 0.17 | 0.17 | 86 | 1009.3 |
| 20260507002018 | 66 | 260 | 1.0 | 3.0 | 0.00 | 0.17 | 0.17 | 86 | 1009.2 |
| 20260507001018 | 67 | 291 | 1.0 | 2.0 | 0.00 | 0.17 | 0.17 | 85 | 1009.2 |
| 20260507000018 | 67 | 277 | 1.0 | 2.0 | 0.00 | 0.17 | 0.17 | 85 | 1008.8 |
| 20260506235019 | 67 | 226 | 0.0 | 2.0 | 0.00 | 0.17 | 0.17 | 84 | 1008.8 |
| 20260506234058 | 67 | 276 | 1.0 | 3.0 | 0.00 | 0.17 | 0.17 | 83 | 1008.7 |
| 20260506233019 | 68 | 241 | 1.0 | 3.0 | 0.00 | 0.17 | 0.17 | 83 | 1008.6 |
| 20260506232016 | 68 | 253 | 1.0 | 4.0 | 0.00 | 0.17 | 0.17 | 82 | 1008.6 |
| 20260506231015 | 68 | 319 | 1.0 | 2.0 | 0.00 | 0.17 | 0.17 | 82 | 1008.8 |
| 20260506230016 | 68 | 280 | 1.0 | 3.0 | 0.00 | 0.17 | 0.17 | 82 | 1008.8 |
| 20260506225016 | 68 | 264 | 0.0 | 2.0 | 0.00 | 0.17 | 0.17 | 82 | 1008.8 |
| 20260506224017 | 68 | 291 | 1.0 | 2.0 | 0.00 | 0.17 | 0.17 | 81 | 1008.6 |
| 20260506223057 | 68 | 272 | 2.0 | 3.0 | 0.00 | 0.17 | 0.17 | 81 | 1008.7 |
| 20260506222038 | 68 | 133 | 1.0 | 3.0 | 0.00 | 0.17 | 0.17 | 81 | 1008.7 |
| 20260506221017 | 68 | 116 | 1.0 | 4.0 | 0.00 | 0.17 | 0.17 | 81 | 1008.7 |
| 20260506220019 | 69 | 85 | 1.0 | 4.0 | 0.00 | 0.17 | 0.17 | 79 | 1008.7 |
| 20260506215017 | 70 | 29 | 2.0 | 6.0 | 0.00 | 0.17 | 0.17 | 77 | 1008.5 |
| 20260506214037 | 70 | 253 | 2.0 | 5.0 | 0.00 | 0.18 | 0.17 | 75 | 1008.5 |
| 20260506213019 | 70 | 266 | 2.0 | 4.0 | 0.00 | 0.18 | 0.17 | 77 | 1008.5 |
| 20260506212017 | 70 | 246 | 1.0 | 4.0 | 0.00 | 0.18 | 0.17 | 77 | 1008.4 |
| 20260506211019 | 70 | 284 | 3.0 | 7.0 | 0.00 | 0.18 | 0.17 | 76 | 1008.4 |
| 20260506210018 | 70 | 269 | 3.0 | 8.0 | 0.00 | 0.18 | 0.17 | 76 | 1008.3 |
| 20260506205018 | 69 | 270 | 3.0 | 5.0 | 0.00 | 0.18 | 0.17 | 78 | 1008.4 |
| 20260506204039 | 69 | 289 | 3.0 | 6.0 | 0.00 | 0.18 | 0.17 | 78 | 1008.3 |
| 20260506203018 | 69 | 280 | 3.0 | 6.0 | 0.00 | 0.18 | 0.17 | 78 | 1008.1 |
| 20260506202018 | 69 | 265 | 4.0 | 8.0 | 0.00 | 0.18 | 0.17 | 77 | 1008.2 |
| 20260506201018 | 68 | 271 | 4.0 | 10.0 | 0.00 | 0.18 | 0.17 | 78 | 1008.2 |
| 20260506200018 | 69 | 262 | 3.0 | 9.0 | 0.00 | 0.18 | 0.17 | 78 | 1008.3 |
| 20260506195058 | 69 | 263 | 3.0 | 9.0 | 0.00 | 0.18 | 0.17 | 78 | 1008.4 |
| 20260506194036 | 68 | 279 | 3.0 | 7.0 | 0.00 | 0.18 | 0.17 | 79 | 1008.5 |
| 20260506193016 | 68 | 273 | 4.0 | 9.0 | 0.00 | 0.18 | 0.17 | 80 | 1008.6 |
| 20260506192016 | 67 | 278 | 3.0 | 7.0 | 0.00 | 0.18 | 0.17 | 81 | 1008.8 |
| 20260506191021 | 66 | 264 | 2.0 | 4.0 | 0.00 | 0.18 | 0.17 | 83 | 1009.1 |
| 20260506190019 | 65 | 271 | 3.0 | 6.0 | 0.00 | 0.18 | 0.17 | 84 | 1009.1 |
| 20260506185019 | 65 | 266 | 3.0 | 5.0 | 0.00 | 0.18 | 0.17 | 85 | 1009.1 |
| 20260506184022 | 65 | 260 | 3.0 | 4.0 | 0.00 | 0.18 | 0.17 | 87 | 1009.1 |
| 20260506183020 | 64 | 255 | 2.0 | 5.0 | 0.00 | 0.18 | 0.17 | 87 | 1009.1 |
| 20260506182023 | 64 | 254 | 2.0 | 5.0 | 0.00 | 0.18 | 0.17 | 88 | 1009.2 |
| 20260506181020 | 63 | 265 | 3.0 | 6.0 | 0.00 | 0.18 | 0.17 | 88 | 1009.3 |
| 20260506180020 | 63 | 267 | 3.0 | 7.0 | 0.00 | 0.18 | 0.17 | 89 | 1009.3 |
| 20260506175023 | 63 | 272 | 2.0 | 3.0 | 0.00 | 0.18 | 0.17 | 90 | 1009.4 |
| 20260506174020 | 62 | 275 | 3.0 | 8.0 | 0.00 | 0.18 | 0.17 | 90 | 1009.4 |
| 20260506173040 | 62 | 272 | 3.0 | 7.0 | 0.00 | 0.18 | 0.17 | 91 | 1009.3 |
| 20260506172020 | 62 | 266 | 3.0 | 5.0 | 0.00 | 0.18 | 0.17 | 91 | 1009.4 |
| 20260506171017 | 61 | 241 | 3.0 | 11.0 | 0.00 | 0.18 | 0.17 | 92 | 1009.4 |
| 20260506170020 | 61 | 245 | 3.0 | 5.0 | 0.00 | 0.18 | 0.17 | 92 | 1009.5 |
| 20260506165019 | 61 | 273 | 3.0 | 7.0 | 0.00 | 0.18 | 0.17 | 92 | 1009.5 |
| 20260506164020 | 61 | 256 | 3.0 | 7.0 | 0.00 | 0.18 | 0.17 | 93 | 1009.4 |
| 20260506163020 | 61 | 252 | 3.0 | 8.0 | 0.01 | 0.18 | 0.17 | 93 | 1009.6 |
| 20260506162020 | 61 | 243 | 2.0 | 8.0 | 0.02 | 0.18 | 0.17 | 93 | 1009.7 |
| 20260506161020 | 61 | 261 | 3.0 | 7.0 | 0.03 | 0.18 | 0.17 | 93 | 1009.7 |
| 20260506160021 | 61 | 252 | 3.0 | 6.0 | 0.03 | 0.18 | 0.17 | 93 | 1009.7 |
| 20260506155021 | 61 | 269 | 2.0 | 5.0 | 0.04 | 0.18 | 0.17 | 93 | 1009.7 |
| 20260506154021 | 61 | 280 | 3.0 | 7.0 | 0.04 | 0.18 | 0.17 | 93 | 1009.8 |
| 20260506153021 | 61 | 266 | 2.0 | 6.0 | 0.04 | 0.17 | 0.17 | 93 | 1010.2 |
| 20260506152021 | 61 | 268 | 3.0 | 7.0 | 0.05 | 0.16 | 0.16 | 92 | 1010.3 |
| 20260506151025 | 61 | 248 | 2.0 | 4.0 | 0.06 | 0.15 | 0.15 | 93 | 1010.4 |
| 20260506150021 | 61 | 271 | 3.0 | 6.0 | 0.09 | 0.15 | 0.14 | 93 | 1010.5 |
| 20260506145021 | 61 | 275 | 3.0 | 7.0 | 0.09 | 0.14 | 0.13 | 93 | 1010.3 |
| 20260506144024 | 61 | 242 | 2.0 | 5.0 | 0.09 | 0.13 | 0.13 | 92 | 1010.1 |
| 20260506143025 | 61 | 272 | 3.0 | 5.0 | 0.09 | 0.13 | 0.12 | 92 | 1010.1 |
| 20260506142025 | 62 | 244 | 2.0 | 5.0 | 0.09 | 0.12 | 0.11 | 92 | 1010.3 |
| 20260506141025 | 62 | 260 | 2.0 | 3.0 | 0.08 | 0.09 | 0.09 | 91 | 1010.6 |
| 20260506140025 | 62 | 295 | 1.0 | 3.0 | 0.05 | 0.06 | 0.06 | 91 | 1010.6 |
| 20260506135025 | 62 | 316 | 1.0 | 3.0 | 0.04 | 0.05 | 0.05 | 90 | 1010.6 |
| 20260506134025 | 62 | 246 | 2.0 | 3.0 | 0.03 | 0.04 | 0.04 | 89 | 1010.5 |
| 20260506133026 | 63 | 222 | 1.0 | 3.0 | 0.03 | 0.04 | 0.03 | 87 | 1010.5 |
| 20260506132025 | 63 | 263 | 1.0 | 3.0 | 0.02 | 0.02 | 0.02 | 86 | 1010.2 |
| 20260506131026 | 63 | 243 | 2.0 | 5.0 | 0.01 | 0.01 | 0.01 | 85 | 1010.3 |
| 20260506130046 | 63 | 281 | 1.0 | 3.0 | 0.01 | 0.01 | 0.01 | 85 | 1010.3 |
| 20260506125026 | 63 | 254 | 2.0 | 4.0 | 0.01 | 0.01 | 0.01 | 85 | 1010.4 |
| 20260506124026 | 63 | 248 | 2.0 | 5.0 | 0.00 | 0.01 | 0.00 | 84 | 1010.5 |
| 20260506123026 | 63 | 255 | 2.0 | 4.0 | 0.00 | 0.01 | 0.00 | 83 | 1010.5 |
| 20260506122108 | 64 | 261 | 2.0 | 4.0 | 0.00 | 0.01 | 0.00 | 82 | 1010.6 |
| 20260506121038 | 64 | 238 | 2.0 | 6.0 | 0.00 | 0.01 | 0.00 | 81 | 1010.7 |
| 20260506120017 | 64 | 255 | 3.0 | 6.0 | 0.00 | 0.01 | 0.00 | 81 | 1010.7 |
| 20260506115018 | 64 | 265 | 2.0 | 7.0 | 0.00 | 0.01 | 0.00 | 80 | 1010.3 |
| 20260506114017 | 64 | 261 | 2.0 | 6.0 | 0.00 | 0.01 | 0.00 | 80 | 1010.4 |
| 20260506113027 | 64 | 265 | 2.0 | 4.0 | 0.00 | 0.01 | 0.00 | 81 | 1010.3 |
| 20260506112027 | 63 | 285 | 2.0 | 4.0 | 0.00 | 0.01 | 0.00 | 81 | 1010.3 |
| 20260506111027 | 63 | 275 | 2.0 | 4.0 | 0.00 | 0.01 | 0.00 | 81 | 1010.1 |
| 20260506110038 | 63 | 277 | 3.0 | 8.0 | 0.00 | 0.01 | 0.00 | 82 | 1010.0 |
| 20260506105047 | 63 | 270 | 2.0 | 5.0 | 0.00 | 0.01 | 0.00 | 82 | 1009.9 |
| 20260506104018 | 63 | 251 | 2.0 | 6.0 | 0.00 | 0.01 | 0.00 | 82 | 1009.9 |
| 20260506103018 | 63 | 32 | 2.0 | 6.0 | 0.00 | 0.01 | 0.00 | 82 | 1009.8 |
| 20260506102027 | 63 | 280 | 1.0 | 3.0 | 0.00 | 0.01 | 0.00 | 82 | 1009.8 |
| 20260506101038 | 63 | 291 | 3.0 | 6.0 | 0.00 | 0.01 | 0.00 | 81 | 1009.8 |
| 20260506100027 | 63 | 290 | 2.0 | 7.0 | 0.00 | 0.01 | 0.00 | 81 | 1009.8 |
| 20260506095016 | 63 | 265 | 2.0 | 5.0 | 0.00 | 0.01 | 0.00 | 81 | 1009.7 |
| 20260506094037 | 63 | 255 | 2.0 | 5.0 | 0.00 | 0.01 | 0.00 | 81 | 1009.7 |
| 20260506093016 | 63 | 263 | 2.0 | 4.0 | 0.00 | 0.01 | 0.00 | 80 | 1009.6 |
| 20260506092016 | 63 | 277 | 2.0 | 6.0 | 0.00 | 0.01 | 0.00 | 80 | 1009.8 |
| 20260506091017 | 63 | 267 | 2.0 | 6.0 | 0.00 | 0.01 | 0.00 | 80 | 1009.9 |
| 20260506090017 | 63 | 285 | 2.0 | 6.0 | 0.00 | 0.01 | 0.00 | 80 | 1009.9 |
| 20260506085016 | 64 | 203 | 2.0 | 5.0 | 0.00 | 0.01 | 0.00 | 80 | 1010.0 |
| 20260506084017 | 64 | 259 | 2.0 | 8.0 | 0.00 | 0.01 | 0.00 | 79 | 1010.0 |
| 20260506083037 | 64 | 263 | 2.0 | 6.0 | 0.00 | 0.01 | 0.00 | 79 | 1009.8 |
| 20260506082017 | 65 | 260 | 2.0 | 5.0 | 0.00 | 0.01 | 0.00 | 78 | 1009.8 |
| 20260506081037 | 65 | 265 | 2.0 | 7.0 | 0.00 | 0.01 | 0.00 | 77 | 1009.8 |
| 20260506073018 | 65 | 262 | 2.0 | 5.0 | 0.00 | 0.01 | 0.00 | 75 | 1010.2 |
| 20260506072018 | 65 | 275 | 1.0 | 4.0 | 0.00 | 0.01 | 0.00 | 75 | 1010.3 |
| 20260506071018 | 65 | 240 | 2.0 | 6.0 | 0.00 | 0.01 | 0.00 | 74 | 1010.3 |
| 20260506062016 | 64 | 290 | 1.0 | 4.0 | 0.00 | 0.01 | 0.00 | 76 | 1010.5 |
| 20260506061016 | 64 | 278 | 1.0 | 3.0 | 0.00 | 0.01 | 0.00 | 76 | 1010.4 |
| 20260506051016 | 66 | 281 | 1.0 | 5.0 | 0.00 | 0.01 | 0.00 | 70 | 1010.7 |
| 20260506045016 | 66 | 284 | 1.0 | 3.0 | 0.00 | 0.01 | 0.00 | 69 | 1010.9 |
| 20260506044017 | 66 | 255 | 2.0 | 4.0 | 0.00 | 0.01 | 0.00 | 68 | 1010.9 |
| 20260506043016 | 67 | 265 | 2.0 | 4.0 | 0.00 | 0.01 | 0.00 | 68 | 1010.9 |
| 20260506042017 | 66 | 277 | 2.0 | 4.0 | 0.00 | 0.01 | 0.00 | 67 | 1011.0 |
| 20260506041017 | 66 | 289 | 2.0 | 5.0 | 0.00 | 0.01 | 0.00 | 68 | 1010.9 |
| 20260506040020 | 67 | 264 | 2.0 | 4.0 | 0.00 | 0.01 | 0.00 | 67 | 1010.9 |
| 20260506035038 | 67 | 252 | 2.0 | 6.0 | 0.00 | 0.01 | 0.01 | 66 | 1010.9 |
| 20260506034018 | 67 | 266 | 1.0 | 5.0 | 0.00 | 0.01 | 0.01 | 65 | 1010.8 |
| 20260506033018 | 67 | 259 | 2.0 | 5.0 | 0.00 | 0.01 | 0.01 | 64 | 1010.8 |
| 20260506032019 | 67 | 294 | 1.0 | 3.0 | 0.00 | 0.01 | 0.01 | 64 | 1010.7 |
| 20260506031016 | 67 | 253 | 2.0 | 6.0 | 0.00 | 0.01 | 0.01 | 64 | 1010.8 |
| 20260506030016 | 66 | 239 | 1.0 | 5.0 | 0.00 | 0.01 | 0.01 | 65 | 1010.7 |
| 20260506025016 | 67 | 296 | 1.0 | 3.0 | 0.00 | 0.01 | 0.01 | 65 | 1010.8 |
| 20260506024016 | 67 | 277 | 1.0 | 3.0 | 0.00 | 0.01 | 0.01 | 65 | 1010.8 |
| 20260506023017 | 67 | 269 | 1.0 | 5.0 | 0.00 | 0.01 | 0.01 | 65 | 1010.8 |
| 20260506022016 | 67 | 257 | 1.0 | 4.0 | 0.00 | 0.01 | 0.01 | 64 | 1010.9 |